Weather History for Fort Drum, NY

Change the Weather History Date:

Wednesday, December 5, 2012

  Actual Average Record
Temperature  
Mean Temperature 34 °F -  
Max Temperature 46 °F 35 °F 66 °F (2001)
Min Temperature 20 °F 20 °F -2 °F (2007)
Degree Days  
Heating Degree Days 31    
Moisture  
Dew Point 31 °F    
Average Humidity 82    
Maximum Humidity 100    
Minimum Humidity 55    
Precipitation  
Precipitation 0.09 in - - ()
Sea Level Pressure  
Sea Level Pressure 30.06 in    
Wind  
Wind Speed 11 mph (WNW)    
Max Wind Speed 16 mph    
Max Gust Speed 23 mph    
Visibility 10 miles    
Events Rain , Snow    
Averages and records for this station are not official NWS values.
T = Trace of Precipitation, MM = Missing Value Source: NWS Daily Summary

Daily Weather History Graph

Daily Weather History Graph

Search for Another Location

Airport:

Trip Planner

Search our weather history database for the weather conditions in past years. The results will help you decide how hot, cold, wet, or windy it might be!

Date:

Astronomy

Dec. 05, 2012 Rise Set
Actual Time 7:22 AM EST 4:24 PM EST
Civil Twilight 6:49 AM EST 4:57 PM EST
Nautical Twilight 6:13 AM EST 5:33 PM EST
Astronomical Twilight 5:38 AM EST 6:08 PM EST
Moon 11:22 PM EST (12/5) 11:35 AM EST (12/5)
Length of Visible Light 10h 07m
Length of Day
9h 02m
Waning Gibbous, 60% of the Moon is Illuminated
Dec 5
Waning Gibbous
Dec 6
Last Quarter
Dec 13
New
Dec 20
First Quarter
Dec 28
Full

Hourly Weather History & Observations

Time (EST) Temp. Windchill Dew Point Humidity Pressure Visibility Wind Dir Wind Speed Gust Speed Precip Events Conditions
12:37 AM 46.4 °F 40.7 °F 46.4 °F 100% 29.90 in 6.0 mi WSW 12.7 mph - N/A Rain Heavy Rain
12:43 AM 46.4 °F 41.5 °F 46.4 °F 100% 29.90 in 5.0 mi SW 10.4 mph - N/A Rain Rain
12:44 AM 46.4 °F 41.5 °F 46.4 °F 100% 29.90 in 6.0 mi SW 10.4 mph - N/A Rain Light Rain
12:55 AM 46.2 °F 41.2 °F 46.0 °F 99% 29.90 in 10.0 mi WSW 10.4 mph 20.7 mph 0.09 in Rain Light Rain
12:59 AM 46.4 °F 40.7 °F 46.4 °F 100% 29.90 in 10.0 mi WSW 12.7 mph 20.7 mph N/A   Mostly Cloudy
1:01 AM 46.4 °F 40.4 °F 46.4 °F 100% 29.90 in 10.0 mi WSW 13.8 mph 20.7 mph N/A   Mostly Cloudy
1:24 AM 46.4 °F 40.7 °F 46.4 °F 100% 29.89 in 10.0 mi WSW 12.7 mph 18.4 mph N/A   Mostly Cloudy
1:32 AM 46.4 °F 41.1 °F 46.4 °F 100% 29.89 in 10.0 mi WSW 11.5 mph 18.4 mph N/A   Mostly Cloudy
1:33 AM 46.4 °F 41.1 °F 46.4 °F 100% 29.90 in 10.0 mi WSW 11.5 mph 18.4 mph N/A   Mostly Cloudy
1:38 AM 46.4 °F 41.1 °F 46.4 °F 100% 29.90 in 10.0 mi WSW 11.5 mph 23.0 mph N/A   Mostly Cloudy
1:46 AM 46.4 °F 41.1 °F 46.4 °F 100% 29.90 in 10.0 mi WSW 11.5 mph 23.0 mph N/A   Overcast
1:55 AM 46.0 °F 40.6 °F 45.9 °F 99% 29.91 in 10.0 mi West 11.5 mph 20.7 mph 0.00 in   Overcast
2:09 AM 46.4 °F 41.5 °F 44.6 °F 93% 29.92 in 10.0 mi WSW 10.4 mph - N/A   Mostly Cloudy
2:14 AM 44.6 °F 39.2 °F 44.6 °F 100% 29.92 in 10.0 mi West 10.4 mph - N/A   Mostly Cloudy
2:18 AM 44.6 °F 39.2 °F 44.6 °F 100% 29.93 in 10.0 mi WSW 10.4 mph - N/A   Mostly Cloudy
2:23 AM 44.6 °F 39.7 °F 44.6 °F 100% 29.93 in 10.0 mi West 9.2 mph - N/A   Mostly Cloudy
2:36 AM 44.6 °F 40.2 °F 44.6 °F 100% 29.94 in 10.0 mi West 8.1 mph - N/A   Overcast
2:55 AM 44.6 °F 40.2 °F 44.4 °F 99% 29.94 in 10.0 mi West 8.1 mph - N/A   Overcast
2:58 AM 44.6 °F 40.7 °F 44.6 °F 100% 29.94 in 10.0 mi West 6.9 mph - N/A   Mostly Cloudy
3:55 AM 43.5 °F 39.4 °F 43.3 °F 99% 29.94 in 10.0 mi West 6.9 mph - N/A   Overcast
4:11 AM 42.8 °F 39.3 °F 42.8 °F 100% 29.94 in 10.0 mi West 5.8 mph - N/A   Overcast
4:26 AM 42.8 °F 38.0 °F 42.8 °F 100% 29.94 in 10.0 mi West 8.1 mph - N/A   Overcast
4:35 AM 42.8 °F 36.6 °F 42.8 °F 100% 29.94 in 10.0 mi West 11.5 mph - N/A   Overcast
4:42 AM 42.8 °F 37.0 °F 42.8 °F 100% 29.95 in 10.0 mi West 10.4 mph - N/A   Overcast
4:55 AM 42.6 °F 37.8 °F 40.3 °F 91% 29.95 in 10.0 mi West 8.1 mph - N/A   Overcast
5:01 AM 42.8 °F 38.0 °F 41.0 °F 93% 29.95 in 10.0 mi West 8.1 mph - N/A   Overcast
5:13 AM 42.8 °F 37.0 °F 39.2 °F 87% 29.96 in 10.0 mi West 10.4 mph 19.6 mph N/A   Overcast
5:19 AM 42.8 °F 37.0 °F 39.2 °F 87% 29.96 in 10.0 mi West 10.4 mph 19.6 mph N/A   Overcast
5:22 AM 41.0 °F 33.1 °F 39.2 °F 93% 29.96 in 10.0 mi West 15.0 mph 21.9 mph N/A   Overcast
5:55 AM 40.3 °F 34.4 °F 35.8 °F 84% 29.98 in 10.0 mi West 9.2 mph 17.3 mph N/A   Overcast
6:55 AM 38.3 °F 31.9 °F 31.5 °F 76% 30.01 in 10.0 mi West 9.2 mph 17.3 mph N/A   Overcast
7:10 AM 37.4 °F 29.8 °F 28.4 °F 70% 30.02 in 10.0 mi West 11.5 mph 21.9 mph N/A   Overcast
7:13 AM 37.4 °F 32.1 °F 30.2 °F 75% 30.02 in 10.0 mi West 6.9 mph 21.9 mph N/A   Overcast
7:35 AM 37.4 °F 30.3 °F 28.4 °F 70% 30.03 in 10.0 mi West 10.4 mph 20.7 mph N/A   Overcast
7:55 AM 36.0 °F 28.5 °F 26.6 °F 69% 30.04 in 10.0 mi West 10.4 mph 20.7 mph N/A   Overcast
8:05 AM 35.6 °F 27.5 °F 26.6 °F 70% 30.04 in 10.0 mi West 11.5 mph 21.9 mph N/A   Overcast
9:55 AM 34.5 °F 25.7 °F 22.5 °F 61% 30.11 in 10.0 mi West 12.7 mph 20.7 mph N/A   Overcast
10:55 AM 33.8 °F 26.4 °F 21.0 °F 60% 30.12 in 10.0 mi WNW 9.2 mph - N/A   Overcast
11:55 AM 33.6 °F 24.1 °F 20.8 °F 59% 30.11 in 10.0 mi WNW 13.8 mph - N/A   Overcast
12:07 PM 33.8 °F 24.8 °F 21.2 °F 60% 30.11 in 10.0 mi WNW 12.7 mph - N/A Rain Light Rain
12:26 PM 32.0 °F 22.1 °F 23.0 °F 69% 30.12 in 10.0 mi NNW 13.8 mph - N/A   Overcast
12:30 PM 32.0 °F 21.2 °F 21.2 °F 64% 30.12 in 10.0 mi NW 16.1 mph - N/A Rain Light Rain
12:31 PM 32.0 °F 21.2 °F 21.2 °F 64% 30.12 in 10.0 mi NW 16.1 mph - N/A   Overcast
12:55 PM 32.7 °F 23.4 °F 19.9 °F 59% 30.12 in 10.0 mi NW 12.7 mph 19.6 mph 0.00 in   Overcast
1:21 PM 33.8 °F 24.8 °F 19.4 °F 56% 30.13 in 10.0 mi WNW 12.7 mph - N/A   Overcast
1:52 PM 30.2 °F 20.2 °F 23.0 °F 75% 30.15 in 10.0 mi NNW 12.7 mph - N/A Snow Light Snow
1:55 PM 30.9 °F 21.2 °F 23.2 °F 73% 30.15 in 10.0 mi NW 12.7 mph - 0.00 in Snow Light Snow
2:01 PM 30.2 °F 20.2 °F 23.0 °F 75% 30.15 in 10.0 mi North 12.7 mph - N/A   Overcast
2:13 PM 30.2 °F 20.2 °F 23.0 °F 75% 30.16 in 9.0 mi NNW 12.7 mph - N/A Snow Light Snow
2:19 PM 30.2 °F 20.2 °F 23.0 °F 75% 30.16 in 7.0 mi NNW 12.7 mph - N/A Snow Light Snow
2:55 PM 29.1 °F 17.9 °F 24.1 °F 81% 30.19 in 7.0 mi NNW 15.0 mph - 0.00 in Snow Light Snow
3:22 PM 28.4 °F 18.5 °F 23.0 °F 80% 30.20 in 10.0 mi North 11.5 mph - N/A Snow Light Snow
3:23 PM 28.4 °F 18.0 °F 23.0 °F 80% 30.21 in 10.0 mi North 12.7 mph - N/A Snow Light Snow
3:25 PM 28.4 °F 18.0 °F 23.0 °F 80% 30.21 in 10.0 mi North 12.7 mph - N/A Snow Light Snow
3:34 PM 28.4 °F 19.1 °F 23.0 °F 80% 30.21 in 8.0 mi North 10.4 mph - N/A Snow Light Snow
3:47 PM 28.4 °F 20.4 °F 23.0 °F 80% 30.22 in 10.0 mi NNW 8.1 mph - N/A   Overcast
3:55 PM 29.1 °F 22.1 °F 21.7 °F 74% 30.22 in 10.0 mi NNW 6.9 mph - 0.00 in   Overcast
4:06 PM 30.2 °F 19.8 °F 19.4 °F 64% 30.23 in 10.0 mi NNW 13.8 mph - N/A   Overcast
4:32 PM 28.4 °F 18.0 °F 17.6 °F 64% 30.24 in 10.0 mi NNW 12.7 mph - N/A   Overcast
4:55 PM 28.9 °F 17.7 °F 16.5 °F 60% 30.25 in 10.0 mi NNW 15.0 mph - N/A   Overcast
5:55 PM 28.8 °F 19.5 °F 14.5 °F 55% 30.28 in 10.0 mi NW 10.4 mph - N/A   Overcast
6:55 PM 26.6 °F 18.2 °F 15.3 °F 62% 30.30 in 10.0 mi NW 8.1 mph - N/A   Clear
7:55 PM 26.1 °F 16.8 °F 14.2 °F 61% 30.33 in 10.0 mi NNW 9.2 mph - N/A   Clear
8:55 PM 24.4 °F 18.6 °F 14.9 °F 67% 30.34 in 10.0 mi NNW 4.6 mph - N/A   Clear
9:55 PM 23.4 °F 16.2 °F 14.7 °F 70% 30.35 in 10.0 mi NNW 5.8 mph - N/A   Clear
10:55 PM 22.6 °F 15.3 °F 13.8 °F 69% 30.35 in 10.0 mi North 5.8 mph - N/A   Clear
11:55 PM 20.8 °F 14.4 °F 14.2 °F 75% 30.36 in 10.0 mi NNW 4.6 mph - N/A   Clear